START_TIME,STEP,MOV.,AL01,t_acc.,AL02,t_acc.,E37,t_acc.,H21,t_acc.
1979-07-22 09:00:33.940 ,4,0,0.,24.0,0.,24.0,1.,24.0,0.,24.0
1979-07-22 09:00:57.940 ,3,1,0.,24.0,0.,24.0,0.,24.0,0.,24.0
1979-07-22 09:01:21.940 ,3,0,0.,24.0,0.,24.0,0.,24.0,0.,24.0
1979-07-22 09:01:45.940 ,2,1,2.,24.0,0.,24.0,0.,24.0,0.,24.0
1979-07-22 09:02:09.940 ,2,0,0.,24.0,0.,24.0,0.,24.0,0.,24.0
1979-07-22 09:02:33.940 ,1,1,1.,24.0,0.,24.0,0.,24.0,0.,24.0
1979-07-22 09:02:57.940 ,1,0,7.,24.0,1.,24.0,1.,24.0,0.,24.0
1979-07-22 09:03:21.940 ,0,1,70.,24.0,24.,24.0,0.,24.0,0.,24.0
1979-07-22 09:03:45.940 ,0,0,352.,24.0,140.,24.0,0.,24.0,0.,24.0
1979-07-22 09:04:09.940 ,0,1,408.,24.0,116.,24.0,0.,24.0,0.,24.0
1979-07-22 09:04:33.940 ,0,0,296.,24.0,78.,24.0,0.,24.0,0.,24.0
1979-07-22 09:04:57.940 ,1,1,102.,24.0,4.,24.0,1.,24.0,0.,24.0
1979-07-22 09:05:21.940 ,1,0,9.,24.0,0.,24.0,1.,24.0,0.,24.0
1979-07-22 09:05:45.940 ,2,1,6.,24.0,0.,24.0,0.,24.0,0.,24.0
1979-07-22 09:06:09.940 ,2,0,0.,24.0,0.,24.0,0.,24.0,0.,24.0
1979-07-22 09:06:33.940 ,3,1,0.,24.0,0.,24.0,0.,24.0,0.,24.0
1979-07-22 09:06:57.940 ,3,0,0.,24.0,0.,24.0,0.,24.0,0.,24.0
1979-07-22 09:07:21.940 ,4,1,0.,24.0,0.,24.0,0.,24.0,0.,24.0
1979-07-22 09:07:45.940 ,4,0,0.,24.0,0.,24.0,0.,24.0,0.,24.0
1979-07-22 09:08:09.940 ,5,1,0.,24.0,0.,24.0,0.,24.0,0.,24.0
1979-07-22 09:08:33.940 ,5,0,0.,24.0,0.,24.0,1.,24.0,0.,24.0
1979-07-22 09:08:57.940 ,6,1,0.,24.0,0.,24.0,2.,24.0,0.,24.0
1979-07-22 09:09:21.940 ,6,0,1.,24.0,1.,24.0,0.,24.0,0.,24.0
1979-07-22 09:09:45.940 ,7,1,12.,24.0,0.,24.0,0.,24.0,0.,24.0
1979-07-22 09:10:09.940 ,7,0,29.,24.0,0.,24.0,0.,24.0,0.,24.0
1979-07-22 09:10:33.940 ,7,1,25.,24.0,0.,24.0,1.,24.0,0.,24.0
1979-07-22 09:10:57.940 ,7,0,23.,24.0,0.,24.0,0.,24.0,0.,24.0
1979-07-22 09:11:21.940 ,6,1,22.,24.0,0.,24.0,0.,24.0,0.,24.0
1979-07-22 09:11:45.940 ,6,0,0.,24.0,0.,24.0,1.,24.0,0.,24.0
1979-07-22 09:12:09.940 ,5,1,2.,24.0,1.,24.0,0.,24.0,0.,24.0
1979-07-22 09:12:33.940 ,5,0,0.,24.0,0.,24.0,1.,24.0,0.,24.0
1979-07-22 09:12:57.940 ,4,1,0.,24.0,0.,24.0,1.,24.0,0.,24.0
1979-07-22 09:13:21.940 ,4,0,0.,24.0,0.,24.0,2.,24.0,0.,24.0
1979-07-22 09:13:45.940 ,3,1,1.,24.0,0.,24.0,1.,24.0,0.,24.0
1979-07-22 09:14:09.940 ,3,0,0.,24.0,0.,24.0,0.,24.0,0.,24.0
1979-07-22 09:14:33.940 ,2,1,0.,24.0,0.,24.0,0.,24.0,0.,24.0
1979-07-22 09:14:57.940 ,2,0,0.,24.0,0.,24.0,0.,24.0,0.,24.0
1979-07-22 09:15:21.940 ,1,1,31.,24.0,1.,24.0,0.,24.0,0.,24.0
1979-07-22 09:15:45.940 ,1,0,88.,24.0,12.,24.0,0.,24.0,0.,24.0
1979-07-22 09:16:09.940 ,0,1,144.,24.0,13.,24.0,0.,24.0,0.,24.0
1979-07-22 09:16:33.940 ,0,0,440.,24.0,52.,24.0,1.,24.0,0.,24.0
1979-07-22 09:16:57.940 ,0,1,456.,24.0,70.,24.0,0.,24.0,0.,24.0
1979-07-22 09:17:21.940 ,0,0,288.,24.0,50.,24.0,1.,24.0,0.,24.0
1979-07-22 09:17:45.940 ,1,1,82.,24.0,28.,24.0,0.,24.0,0.,24.0
1979-07-22 09:18:09.940 ,1,0,10.,24.0,15.,24.0,0.,24.0,0.,24.0
1979-07-22 09:18:33.940 ,2,1,26.,24.0,42.,24.0,0.,24.0,0.,24.0
1979-07-22 09:18:57.940 ,2,0,0.,24.0,0.,24.0,1.,24.0,0.,24.0
1979-07-22 09:19:21.940 ,3,1,0.,24.0,0.,24.0,0.,24.0,0.,24.0
1979-07-22 09:19:45.940 ,3,0,0.,24.0,0.,24.0,0.,24.0,0.,24.0
1979-07-22 09:20:09.940 ,4,1,0.,24.0,0.,24.0,0.,24.0,0.,24.0
1979-07-22 09:20:33.940 ,4,0,0.,24.0,0.,24.0,0.,24.0,0.,24.0
1979-07-22 09:20:57.940 ,5,1,0.,24.0,0.,24.0,0.,24.0,0.,24.0
1979-07-22 09:21:21.940 ,5,0,0.,24.0,0.,24.0,0.,24.0,0.,24.0
1979-07-22 09:21:45.940 ,6,1,1.,24.0,0.,24.0,0.,24.0,0.,24.0
1979-07-22 09:22:09.940 ,6,0,2.,24.0,0.,24.0,0.,24.0,0.,24.0
1979-07-22 09:22:33.940 ,7,1,5.,24.0,0.,24.0,0.,24.0,0.,24.0
1979-07-22 09:22:57.940 ,7,0,29.,24.0,0.,24.0,0.,24.0,0.,24.0
1979-07-22 09:23:21.940 ,7,1,35.,24.0,0.,24.0,0.,24.0,0.,24.0
1979-07-22 09:23:45.940 ,7,0,31.,24.0,0.,24.0,0.,24.0,0.,24.0
1979-07-22 09:24:09.940 ,6,1,27.,24.0,0.,24.0,0.,24.0,0.,24.0
1979-07-22 09:24:33.940 ,6,0,5.,24.0,0.,24.0,0.,24.0,0.,24.0
1979-07-22 09:24:57.940 ,5,1,0.,24.0,0.,24.0,0.,24.0,0.,24.0
1979-07-22 09:25:21.940 ,5,0,0.,24.0,0.,24.0,0.,24.0,0.,24.0
1979-07-22 09:25:45.940 ,4,1,1.,24.0,0.,24.0,0.,24.0,0.,24.0
1979-07-22 09:26:09.940 ,4,0,0.,24.0,0.,24.0,0.,24.0,0.,24.0
1979-07-22 09:26:33.940 ,3,1,1.,24.0,0.,24.0,0.,24.0,0.,24.0
1979-07-22 09:26:57.940 ,3,0,0.,24.0,0.,24.0,0.,24.0,0.,24.0
1979-07-22 09:27:21.940 ,2,1,0.,24.0,0.,24.0,0.,24.0,0.,24.0
1979-07-22 09:27:45.940 ,0,0,1.,24.0,0.,24.0,0.,24.0,0.,24.0
1979-07-22 09:28:09.940 ,1,1,7.,24.0,1.,24.0,0.,24.0,0.,24.0
1979-07-22 09:28:33.940 ,1,0,33.,24.0,1.,24.0,0.,24.0,0.,24.0
1979-07-22 09:28:57.940 ,0,1,43.,24.0,10.,24.0,0.,24.0,0.,24.0
1979-07-22 09:29:21.940 ,0,0,96.,24.0,54.,24.0,0.,24.0,0.,24.0
1979-07-22 09:29:45.940 ,0,1,86.,24.0,39.,24.0,0.,24.0,0.,24.0
1979-07-22 09:30:09.940 ,0,0,76.,24.0,23.,24.0,0.,24.0,0.,24.0
1979-07-22 09:30:33.940 ,1,1,78.,24.0,13.,24.0,0.,24.0,0.,24.0
1979-07-22 09:30:57.940 ,1,0,42.,24.0,2.,24.0,0.,24.0,0.,24.0
1979-07-22 09:31:21.940 ,2,1,28.,24.0,1.,24.0,0.,24.0,0.,24.0
1979-07-22 09:31:45.940 ,2,0,2.,24.0,0.,24.0,1.,24.0,0.,24.0
1979-07-22 09:32:09.940 ,3,1,0.,24.0,0.,24.0,0.,24.0,0.,24.0
1979-07-22 09:32:33.940 ,3,0,0.,24.0,0.,24.0,0.,24.0,0.,24.0
1979-07-22 09:32:57.940 ,4,1,0.,24.0,0.,24.0,0.,24.0,0.,24.0
1979-07-22 09:33:21.940 ,4,0,0.,24.0,0.,24.0,0.,24.0,0.,24.0
1979-07-22 09:33:45.940 ,5,1,0.,24.0,0.,24.0,0.,24.0,0.,24.0
1979-07-22 09:34:09.940 ,5,0,0.,24.0,0.,24.0,0.,24.0,0.,24.0
1979-07-22 09:34:33.940 ,6,1,0.,24.0,0.,24.0,0.,24.0,0.,24.0
1979-07-22 09:34:57.940 ,6,0,0.,24.0,1.,24.0,0.,24.0,0.,24.0
1979-07-22 09:35:21.940 ,7,1,10.,24.0,0.,24.0,0.,24.0,0.,24.0
1979-07-22 09:35:45.940 ,7,0,30.,24.0,0.,24.0,0.,24.0,0.,24.0
1979-07-22 09:36:09.940 ,7,1,37.,24.0,0.,24.0,1.,24.0,0.,24.0
1979-07-22 09:36:33.940 ,7,0,28.,24.0,0.,24.0,0.,24.0,0.,24.0
1979-07-22 09:36:57.940 ,6,1,18.,24.0,0.,24.0,1.,24.0,0.,24.0
1979-07-22 09:37:21.940 ,6,0,1.,24.0,0.,24.0,0.,24.0,0.,24.0
1979-07-22 09:37:45.940 ,5,1,0.,24.0,0.,24.0,0.,24.0,0.,24.0
1979-07-22 09:38:09.940 ,5,0,1.,24.0,0.,24.0,0.,24.0,0.,24.0
1979-07-22 09:38:33.940 ,4,1,0.,24.0,0.,24.0,0.,24.0,0.,24.0
1979-07-22 09:38:57.940 ,4,0,0.,24.0,0.,24.0,0.,24.0,0.,24.0
1979-07-22 09:39:21.940 ,3,1,0.,24.0,0.,24.0,1.,24.0,0.,24.0
1979-07-22 09:39:45.940 ,3,0,0.,24.0,1.,24.0,0.,24.0,0.,24.0
1979-07-22 09:40:09.940 ,2,1,1.,24.0,0.,24.0,0.,24.0,0.,24.0
1979-07-22 09:40:33.940 ,2,0,0.,24.0,1.,24.0,0.,24.0,0.,24.0
1979-07-22 09:40:57.940 ,1,1,,0,,0,,0,,0
1979-07-22 09:41:21.940 ,1,0,352.,24.0,10.,24.0,0.,24.0,0.,24.0
1979-07-22 09:41:45.940 ,0,1,512.,24.0,16.,24.0,0.,24.0,0.,24.0
1979-07-22 09:42:09.940 ,0,0,880.,24.0,37.,24.0,0.,24.0,0.,24.0
1979-07-22 09:42:33.940 ,0,1,752.,24.0,31.,24.0,0.,24.0,0.,24.0
1979-07-22 09:42:57.940 ,0,0,640.,24.0,17.,24.0,0.,24.0,0.,24.0
1979-07-22 09:43:21.940 ,1,1,360.,24.0,6.,24.0,0.,24.0,0.,24.0
1979-07-22 09:43:45.940 ,1,0,296.,24.0,6.,24.0,0.,24.0,0.,24.0
1979-07-22 09:44:09.940 ,2,1,264.,24.0,2.,24.0,1.,24.0,0.,24.0
1979-07-22 09:44:33.940 ,2,0,1.,24.0,1.,24.0,0.,24.0,0.,24.0
1979-07-22 09:44:57.940 ,3,1,0.,24.0,0.,24.0,0.,24.0,0.,24.0
1979-07-22 09:45:21.940 ,3,0,0.,24.0,0.,24.0,1.,24.0,0.,24.0
1979-07-22 09:45:45.940 ,4,1,0.,24.0,0.,24.0,0.,24.0,0.,24.0
1979-07-22 09:46:09.940 ,4,0,0.,24.0,0.,24.0,1.,24.0,0.,24.0
1979-07-22 09:46:33.940 ,5,1,0.,24.0,0.,24.0,0.,24.0,0.,24.0
1979-07-22 09:46:57.940 ,5,0,0.,24.0,0.,24.0,0.,24.0,0.,24.0
1979-07-22 09:47:21.940 ,6,1,0.,24.0,0.,24.0,1.,24.0,0.,24.0
1979-07-22 09:47:45.940 ,6,0,1.,24.0,1.,24.0,0.,24.0,0.,24.0
1979-07-22 09:48:09.940 ,7,1,3.,24.0,0.,24.0,1.,24.0,0.,24.0
1979-07-22 09:48:33.940 ,7,0,36.,24.0,0.,24.0,0.,24.0,0.,24.0
1979-07-22 09:48:57.940 ,7,1,27.,24.0,0.,24.0,0.,24.0,0.,24.0
1979-07-22 09:49:21.940 ,7,0,29.,24.0,0.,24.0,0.,24.0,0.,24.0
1979-07-22 09:49:45.940 ,6,1,25.,24.0,0.,24.0,0.,24.0,0.,24.0
1979-07-22 09:50:09.940 ,6,0,0.,24.0,0.,24.0,0.,24.0,0.,24.0
1979-07-22 09:50:33.940 ,5,1,0.,24.0,0.,24.0,0.,24.0,0.,24.0
1979-07-22 09:50:57.940 ,5,0,0.,24.0,0.,24.0,0.,24.0,0.,24.0
1979-07-22 09:51:21.940 ,4,1,0.,24.0,0.,24.0,1.,24.0,0.,24.0
1979-07-22 09:51:45.940 ,4,0,0.,24.0,0.,24.0,1.,24.0,0.,24.0
1979-07-22 09:52:09.940 ,3,1,1.,24.0,0.,24.0,0.,24.0,0.,24.0
1979-07-22 09:52:33.940 ,3,0,0.,24.0,0.,24.0,0.,24.0,0.,24.0
1979-07-22 09:52:57.930 ,2,1,0.,24.0,0.,24.0,0.,24.0,0.,24.0
1979-07-22 09:53:21.930 ,2,0,2.,24.0,0.,24.0,0.,24.0,0.,24.0
1979-07-22 09:53:45.930 ,1,1,43.,24.0,0.,24.0,0.,24.0,0.,24.0
1979-07-22 09:54:09.930 ,1,0,132.,24.0,2.,24.0,0.,24.0,0.,24.0
1979-07-22 09:54:33.930 ,0,1,168.,24.0,32.,24.0,0.,24.0,0.,24.0
1979-07-22 09:54:57.930 ,0,0,544.,24.0,164.,24.0,0.,24.0,0.,24.0
1979-07-22 09:55:21.930 ,0,0,656.,24.0,164.,24.0,0.,24.0,0.,24.0
1979-07-22 09:55:45.930 ,0,0,608.,24.0,152.,24.0,1.,24.0,0.,24.0
1979-07-22 09:56:09.930 ,1,1,448.,24.0,98.,24.0,2.,24.0,0.,24.0
1979-07-22 09:56:33.930 ,1,0,88.,24.0,3.,24.0,0.,24.0,0.,24.0
1979-07-22 09:56:57.930 ,2,1,49.,24.0,0.,24.0,0.,24.0,0.,24.0
1979-07-22 09:57:21.930 ,2,0,1.,24.0,0.,24.0,0.,24.0,0.,24.0
1979-07-22 09:57:45.930 ,3,1,0.,24.0,0.,24.0,0.,24.0,0.,24.0
1979-07-22 09:58:09.930 ,3,0,2.,24.0,0.,24.0,1.,24.0,0.,24.0
1979-07-22 09:58:33.930 ,4,1,0.,24.0,1.,24.0,0.,24.0,0.,24.0
1979-07-22 09:58:57.930 ,4,0,1.,24.0,0.,24.0,0.,24.0,0.,24.0
1979-07-22 09:59:21.930 ,5,1,0.,24.0,0.,24.0,0.,24.0,0.,24.0
1979-07-22 09:59:45.930 ,5,0,0.,24.0,1.,24.0,0.,24.0,0.,24.0
1979-07-22 10:00:09.930 ,6,1,1.,24.0,0.,24.0,0.,24.0,0.,24.0
1979-07-22 10:00:33.930 ,6,0,0.,24.0,0.,24.0,0.,24.0,0.,24.0
1979-07-22 10:00:57.930 ,7,1,8.,24.0,0.,24.0,0.,24.0,0.,24.0
1979-07-22 10:01:21.930 ,7,0,26.,24.0,0.,24.0,0.,24.0,0.,24.0
1979-07-22 10:01:45.930 ,7,1,30.,24.0,0.,24.0,0.,24.0,0.,24.0
1979-07-22 10:02:09.930 ,7,0,33.,24.0,0.,24.0,1.,24.0,0.,24.0
1979-07-22 10:02:33.930 ,6,1,26.,24.0,0.,24.0,1.,24.0,0.,24.0
1979-07-22 10:02:57.930 ,6,0,1.,24.0,0.,24.0,0.,24.0,0.,24.0
1979-07-22 10:03:21.930 ,5,1,1.,24.0,1.,24.0,0.,24.0,0.,24.0
1979-07-22 10:03:45.930 ,5,0,0.,24.0,0.,24.0,0.,24.0,0.,24.0
1979-07-22 10:04:09.930 ,4,1,0.,24.0,0.,24.0,0.,24.0,0.,24.0
1979-07-22 10:04:33.930 ,4,0,0.,24.0,0.,24.0,0.,24.0,0.,24.0
1979-07-22 10:04:57.930 ,3,1,0.,24.0,0.,24.0,0.,24.0,0.,24.0
1979-07-22 10:05:21.930 ,3,0,0.,24.0,0.,24.0,0.,24.0,0.,24.0
1979-07-22 10:05:45.930 ,2,1,0.,24.0,1.,24.0,0.,24.0,0.,24.0
1979-07-22 10:06:09.930 ,2,0,1.,24.0,0.,24.0,1.,24.0,0.,24.0
1979-07-22 10:06:33.930 ,1,1,11.,24.0,0.,24.0,0.,24.0,0.,24.0
1979-07-22 10:06:57.930 ,1,0,31.,24.0,0.,24.0,2.,24.0,0.,24.0
1979-07-22 10:07:21.930 ,0,1,152.,24.0,7.,24.0,0.,24.0,0.,24.0
1979-07-22 10:07:45.930 ,0,0,720.,24.0,18.,24.0,0.,24.0,0.,24.0
1979-07-22 10:08:09.930 ,0,1,880.,24.0,15.,24.0,0.,24.0,0.,24.0
1979-07-22 10:08:33.930 ,0,0,1280.,24.0,18.,24.0,0.,24.0,0.,24.0
1979-07-22 10:08:57.930 ,1,1,1120.,24.0,9.,24.0,0.,24.0,0.,24.0
1979-07-22 10:09:21.930 ,1,0,22.,24.0,5.,24.0,1.,24.0,0.,24.0
1979-07-22 10:09:45.930 ,2,1,25.,24.0,1.,24.0,0.,24.0,0.,24.0
1979-07-22 10:10:09.930 ,2,0,0.,24.0,0.,24.0,1.,24.0,0.,24.0
1979-07-22 10:10:33.930 ,3,1,0.,24.0,0.,24.0,0.,24.0,0.,24.0
1979-07-22 10:10:57.930 ,3,0,0.,24.0,0.,24.0,0.,24.0,0.,24.0
1979-07-22 10:11:21.930 ,4,1,0.,24.0,0.,24.0,0.,24.0,0.,24.0
1979-07-22 10:11:45.930 ,4,0,0.,24.0,0.,24.0,0.,24.0,0.,24.0
1979-07-22 10:12:09.930 ,5,1,1.,24.0,0.,24.0,0.,24.0,0.,24.0
1979-07-22 10:12:33.930 ,5,0,0.,24.0,0.,24.0,0.,24.0,0.,24.0
1979-07-22 10:12:57.930 ,6,1,0.,24.0,0.,24.0,0.,24.0,0.,24.0
1979-07-22 10:13:21.930 ,6,0,0.,24.0,0.,24.0,0.,24.0,0.,24.0
1979-07-22 10:13:45.930 ,7,1,13.,24.0,0.,24.0,0.,24.0,0.,24.0
1979-07-22 10:14:09.930 ,7,0,29.,24.0,0.,24.0,0.,24.0,0.,24.0
1979-07-22 10:14:33.930 ,7,1,40.,24.0,0.,24.0,1.,24.0,0.,24.0
1979-07-22 10:14:57.930 ,7,0,27.,24.0,0.,24.0,0.,24.0,0.,24.0
1979-07-22 10:15:21.930 ,6,1,33.,24.0,0.,24.0,0.,24.0,0.,24.0
1979-07-22 10:15:45.930 ,6,0,0.,24.0,0.,24.0,0.,24.0,0.,24.0
1979-07-22 10:16:09.930 ,5,1,0.,24.0,0.,24.0,2.,24.0,0.,24.0
1979-07-22 10:16:33.930 ,5,0,0.,24.0,0.,24.0,0.,24.0,0.,24.0
1979-07-22 10:16:57.930 ,4,1,0.,24.0,1.,24.0,0.,24.0,0.,24.0
1979-07-22 10:17:21.930 ,4,0,0.,24.0,0.,24.0,0.,24.0,0.,24.0
1979-07-22 10:17:45.930 ,3,1,0.,24.0,0.,24.0,0.,24.0,0.,24.0
1979-07-22 10:18:09.930 ,3,0,0.,24.0,0.,24.0,0.,24.0,0.,24.0
1979-07-22 10:18:33.930 ,2,1,0.,24.0,0.,24.0,0.,24.0,0.,24.0
1979-07-22 10:18:57.930 ,2,0,2.,24.0,0.,24.0,0.,24.0,0.,24.0
1979-07-22 10:19:21.930 ,1,1,2.,24.0,1.,24.0,0.,24.0,0.,24.0
1979-07-22 10:19:45.930 ,1,0,19.,24.0,1.,24.0,1.,24.0,0.,24.0
1979-07-22 10:20:09.930 ,0,1,90.,24.0,2.,24.0,0.,24.0,0.,24.0
1979-07-22 10:20:33.930 ,0,0,144.,24.0,8.,24.0,0.,24.0,0.,24.0
1979-07-22 10:20:57.930 ,0,1,122.,24.0,6.,24.0,0.,24.0,0.,24.0
1979-07-22 10:21:21.930 ,0,0,92.,24.0,6.,24.0,0.,24.0,0.,24.0
1979-07-22 10:21:45.930 ,1,1,90.,24.0,2.,24.0,0.,24.0,0.,24.0
1979-07-22 10:22:09.930 ,1,0,6.,24.0,0.,24.0,0.,24.0,0.,24.0
1979-07-22 10:22:33.930 ,2,1,7.,24.0,2.,24.0,0.,24.0,0.,24.0
1979-07-22 10:22:57.930 ,2,0,0.,24.0,0.,24.0,0.,24.0,0.,24.0
1979-07-22 10:23:21.930 ,3,1,0.,24.0,0.,24.0,0.,24.0,0.,24.0
1979-07-22 10:23:45.930 ,3,0,0.,24.0,0.,24.0,0.,24.0,0.,24.0
1979-07-22 10:24:09.930 ,4,1,0.,24.0,0.,24.0,0.,24.0,0.,24.0
1979-07-22 10:24:33.930 ,4,0,0.,24.0,0.,24.0,0.,24.0,0.,24.0
1979-07-22 10:24:57.930 ,5,1,0.,24.0,0.,24.0,0.,24.0,0.,24.0
1979-07-22 10:25:21.930 ,5,0,0.,24.0,0.,24.0,0.,24.0,0.,24.0
1979-07-22 10:25:45.930 ,6,1,0.,24.0,0.,24.0,0.,24.0,0.,24.0
1979-07-22 10:26:09.930 ,6,0,0.,24.0,0.,24.0,0.,24.0,0.,24.0
1979-07-22 10:26:33.930 ,7,1,5.,24.0,0.,24.0,0.,24.0,0.,24.0
1979-07-22 10:26:57.930 ,7,0,33.,24.0,0.,24.0,1.,24.0,0.,24.0
1979-07-22 10:27:21.930 ,7,1,29.,24.0,0.,24.0,0.,24.0,0.,24.0
1979-07-22 10:27:45.930 ,7,0,23.,24.0,0.,24.0,0.,24.0,0.,24.0
1979-07-22 10:28:09.930 ,6,1,28.,24.0,0.,24.0,0.,24.0,0.,24.0
1979-07-22 10:28:33.930 ,6,0,0.,24.0,0.,24.0,0.,24.0,0.,24.0
1979-07-22 10:28:57.930 ,5,1,0.,24.0,0.,24.0,0.,24.0,0.,24.0
1979-07-22 10:29:21.930 ,5,0,0.,24.0,0.,24.0,0.,24.0,0.,24.0
1979-07-22 10:29:45.930 ,4,1,0.,24.0,0.,24.0,0.,24.0,0.,24.0
1979-07-22 10:30:09.930 ,4,0,0.,24.0,0.,24.0,0.,24.0,0.,24.0
1979-07-22 10:30:33.930 ,3,1,0.,24.0,0.,24.0,0.,24.0,0.,24.0
1979-07-22 10:30:57.930 ,3,0,0.,24.0,0.,24.0,0.,24.0,0.,24.0
1979-07-22 10:31:21.930 ,2,1,0.,24.0,0.,24.0,0.,24.0,0.,24.0
1979-07-22 10:31:45.930 ,2,0,0.,24.0,0.,24.0,0.,24.0,0.,24.0
1979-07-22 10:32:09.930 ,1,1,4.,24.0,0.,24.0,0.,24.0,0.,24.0
1979-07-22 10:32:33.930 ,1,0,36.,24.0,1.,24.0,0.,24.0,0.,24.0
1979-07-22 10:32:57.930 ,0,1,38.,24.0,1.,24.0,0.,24.0,0.,24.0
1979-07-22 10:33:21.930 ,0,0,70.,24.0,3.,24.0,0.,24.0,0.,24.0
1979-07-22 10:33:45.930 ,0,1,55.,24.0,0.,24.0,0.,24.0,0.,24.0
1979-07-22 10:34:09.930 ,0,0,33.,24.0,1.,24.0,0.,24.0,0.,24.0
1979-07-22 10:34:33.930 ,1,1,11.,24.0,0.,24.0,0.,24.0,0.,24.0
1979-07-22 10:34:57.930 ,1,0,21.,24.0,2.,24.0,0.,24.0,0.,24.0
1979-07-22 10:35:21.930 ,2,1,12.,24.0,1.,24.0,0.,24.0,0.,24.0
1979-07-22 10:35:45.930 ,2,0,0.,24.0,0.,24.0,0.,24.0,0.,24.0
1979-07-22 10:36:09.930 ,3,1,0.,24.0,0.,24.0,1.,24.0,0.,24.0
1979-07-22 10:36:33.930 ,3,0,0.,24.0,0.,24.0,0.,24.0,0.,24.0
1979-07-22 10:36:57.930 ,4,1,0.,24.0,0.,24.0,0.,24.0,0.,24.0
1979-07-22 10:37:21.930 ,4,0,0.,24.0,0.,24.0,1.,24.0,0.,24.0
1979-07-22 10:37:45.930 ,5,1,0.,24.0,0.,24.0,0.,24.0,0.,24.0
1979-07-22 10:38:09.930 ,5,0,0.,24.0,0.,24.0,2.,24.0,0.,24.0
1979-07-22 10:38:33.930 ,6,1,0.,24.0,0.,24.0,0.,24.0,0.,24.0
1979-07-22 10:38:57.930 ,6,0,0.,24.0,0.,24.0,0.,24.0,0.,24.0
1979-07-22 10:39:21.930 ,7,1,8.,24.0,1.,24.0,1.,24.0,0.,24.0
1979-07-22 10:39:45.930 ,7,0,27.,24.0,0.,24.0,0.,24.0,0.,24.0
1979-07-22 10:40:09.930 ,7,1,34.,24.0,0.,24.0,0.,24.0,0.,24.0
1979-07-22 10:40:33.930 ,7,0,36.,24.0,0.,24.0,0.,24.0,0.,24.0
1979-07-22 10:40:57.930 ,6,1,30.,24.0,0.,24.0,0.,24.0,0.,24.0
1979-07-22 10:41:21.930 ,0,0,0.,24.0,0.,24.0,0.,24.0,0.,24.0
1979-07-22 10:42:02.130 ,0,0,,0,,0,,0,,0
1979-07-22 10:42:09.930 ,0,0,0.,24.0,0.,24.0,0.,24.0,0.,24.0
1979-07-22 10:42:33.930 ,4,1,0.,24.0,1.,24.0,2.,24.0,0.,24.0
1979-07-22 10:42:57.930 ,4,0,0.,24.0,0.,24.0,0.,24.0,0.,24.0
1979-07-22 10:43:21.930 ,3,1,0.,24.0,0.,24.0,0.,24.0,0.,24.0
1979-07-22 10:43:45.930 ,3,0,0.,24.0,0.,24.0,0.,24.0,0.,24.0
1979-07-22 10:44:09.930 ,2,1,0.,24.0,0.,24.0,0.,24.0,0.,24.0
1979-07-22 10:44:33.930 ,2,0,0.,24.0,0.,24.0,0.,24.0,0.,24.0
1979-07-22 10:44:57.930 ,1,1,3.,24.0,0.,24.0,0.,24.0,0.,24.0
1979-07-22 10:45:21.930 ,1,0,15.,24.0,3.,24.0,0.,24.0,0.,24.0
1979-07-22 10:45:45.930 ,0,1,36.,24.0,1.,24.0,1.,24.0,0.,24.0
1979-07-22 10:46:09.930 ,0,0,6.,24.0,3.,24.0,0.,24.0,0.,24.0
1979-07-22 10:46:33.930 ,0,1,11.,24.0,1.,24.0,0.,24.0,0.,24.0
1979-07-22 10:46:57.930 ,0,0,16.,24.0,3.,24.0,1.,24.0,0.,24.0
1979-07-22 10:47:21.930 ,1,1,15.,24.0,1.,24.0,0.,24.0,0.,24.0
1979-07-22 10:47:45.930 ,1,0,5.,24.0,0.,24.0,0.,24.0,0.,24.0
1979-07-22 10:48:09.930 ,2,1,1.,24.0,1.,24.0,0.,24.0,0.,24.0
1979-07-22 10:48:33.930 ,2,0,0.,24.0,0.,24.0,0.,24.0,0.,24.0
1979-07-22 10:48:57.930 ,3,1,0.,24.0,1.,24.0,0.,24.0,0.,24.0
1979-07-22 10:49:21.930 ,3,0,0.,24.0,0.,24.0,0.,24.0,0.,24.0
1979-07-22 10:49:45.930 ,4,1,0.,24.0,0.,24.0,0.,24.0,0.,24.0
1979-07-22 10:50:09.930 ,4,0,0.,24.0,0.,24.0,0.,24.0,0.,24.0
1979-07-22 10:50:33.930 ,5,1,0.,24.0,0.,24.0,2.,24.0,0.,24.0
1979-07-22 10:50:57.930 ,5,0,0.,24.0,0.,24.0,0.,24.0,0.,24.0
1979-07-22 10:51:21.930 ,6,1,0.,24.0,0.,24.0,0.,24.0,0.,24.0
1979-07-22 10:51:45.930 ,6,0,0.,24.0,0.,24.0,0.,24.0,0.,24.0
1979-07-22 10:52:09.930 ,7,1,8.,24.0,0.,24.0,0.,24.0,0.,24.0
1979-07-22 10:52:33.930 ,7,0,23.,24.0,0.,24.0,0.,24.0,0.,24.0
1979-07-22 10:52:57.930 ,7,1,23.,24.0,0.,24.0,1.,24.0,0.,24.0
1979-07-22 10:53:21.930 ,7,0,39.,24.0,0.,24.0,0.,24.0,0.,24.0
1979-07-22 10:53:45.930 ,6,1,22.,24.0,0.,24.0,1.,24.0,0.,24.0
1979-07-22 10:54:09.930 ,6,0,0.,24.0,0.,24.0,1.,24.0,0.,24.0
1979-07-22 10:54:33.930 ,5,1,0.,24.0,0.,24.0,1.,24.0,0.,24.0
1979-07-22 10:54:57.930 ,5,0,0.,24.0,1.,24.0,0.,24.0,0.,24.0
1979-07-22 10:55:21.930 ,4,1,0.,24.0,0.,24.0,0.,24.0,0.,24.0
1979-07-22 10:55:45.930 ,4,0,0.,24.0,0.,24.0,0.,24.0,0.,24.0
1979-07-22 10:56:09.930 ,3,1,1.,24.0,0.,24.0,0.,24.0,0.,24.0
1979-07-22 10:56:33.930 ,3,0,0.,24.0,0.,24.0,0.,24.0,0.,24.0
1979-07-22 10:56:57.930 ,2,1,0.,24.0,0.,24.0,0.,24.0,0.,24.0
1979-07-22 10:57:21.930 ,2,0,0.,24.0,0.,24.0,1.,24.0,0.,24.0
1979-07-22 10:57:45.930 ,1,1,13.,24.0,0.,24.0,0.,24.0,0.,24.0
1979-07-22 10:58:09.930 ,1,0,51.,24.0,1.,24.0,0.,24.0,0.,24.0
1979-07-22 10:58:33.930 ,0,1,43.,24.0,1.,24.0,1.,24.0,0.,24.0
1979-07-22 10:58:57.930 ,0,0,13.,24.0,4.,24.0,0.,24.0,0.,24.0
1979-07-22 10:59:21.930 ,0,1,19.,24.0,8.,24.0,0.,24.0,0.,24.0
1979-07-22 10:59:45.930 ,0,0,16.,24.0,5.,24.0,0.,24.0,0.,24.0
1979-07-22 11:00:09.930 ,1,1,28.,24.0,3.,24.0,0.,24.0,0.,24.0
1979-07-22 11:00:33.930 ,1,0,23.,24.0,1.,24.0,0.,24.0,0.,24.0
1979-07-22 11:00:57.930 ,2,1,17.,24.0,0.,24.0,0.,24.0,0.,24.0
1979-07-22 11:01:21.930 ,2,0,0.,24.0,0.,24.0,2.,24.0,0.,24.0
1979-07-22 11:01:45.930 ,3,1,0.,24.0,0.,24.0,0.,24.0,0.,24.0
1979-07-22 11:02:09.930 ,3,0,0.,24.0,0.,24.0,0.,24.0,0.,24.0
1979-07-22 11:02:33.930 ,4,1,0.,24.0,0.,24.0,1.,24.0,0.,24.0
1979-07-22 11:02:57.930 ,4,0,0.,24.0,0.,24.0,0.,24.0,0.,24.0
1979-07-22 11:03:21.930 ,5,1,0.,24.0,0.,24.0,0.,24.0,0.,24.0
1979-07-22 11:03:45.930 ,5,0,0.,24.0,0.,24.0,0.,24.0,0.,24.0
1979-07-22 11:04:09.930 ,6,1,0.,24.0,0.,24.0,0.,24.0,0.,24.0
1979-07-22 11:04:33.930 ,6,0,0.,24.0,0.,24.0,0.,24.0,0.,24.0
1979-07-22 11:04:57.930 ,7,1,6.,24.0,0.,24.0,0.,24.0,0.,24.0
1979-07-22 11:05:21.930 ,7,0,23.,24.0,0.,24.0,0.,24.0,0.,24.0
1979-07-22 11:05:45.930 ,7,1,31.,24.0,0.,24.0,0.,24.0,0.,24.0
1979-07-22 11:06:09.930 ,7,0,42.,24.0,0.,24.0,0.,24.0,0.,24.0
1979-07-22 11:06:33.930 ,6,1,20.,24.0,0.,24.0,0.,24.0,0.,24.0
1979-07-22 11:06:57.930 ,6,0,1.,24.0,0.,24.0,0.,24.0,0.,24.0
1979-07-22 11:07:21.930 ,5,1,0.,24.0,0.,24.0,0.,24.0,0.,24.0
1979-07-22 11:07:45.930 ,5,0,0.,24.0,0.,24.0,0.,24.0,0.,24.0
1979-07-22 11:08:09.930 ,4,1,0.,24.0,0.,24.0,0.,24.0,0.,24.0
1979-07-22 11:08:33.930 ,4,0,0.,24.0,1.,24.0,0.,24.0,0.,24.0
1979-07-22 11:08:57.930 ,3,1,0.,24.0,0.,24.0,1.,24.0,0.,24.0
1979-07-22 11:09:21.930 ,3,0,0.,24.0,0.,24.0,0.,24.0,0.,24.0
1979-07-22 11:09:45.930 ,2,1,0.,24.0,0.,24.0,0.,24.0,0.,24.0
1979-07-22 11:10:09.930 ,2,0,0.,24.0,0.,24.0,2.,24.0,0.,24.0
1979-07-22 11:10:33.930 ,1,1,4.,24.0,1.,24.0,0.,24.0,0.,24.0
1979-07-22 11:10:57.930 ,1,0,17.,24.0,1.,24.0,1.,24.0,0.,24.0
1979-07-22 11:11:21.930 ,0,1,52.,24.0,18.,24.0,0.,24.0,0.,24.0
1979-07-22 11:11:45.930 ,0,0,164.,24.0,72.,24.0,0.,24.0,0.,24.0
1979-07-22 11:50:33.930 ,0,1,19.,24.0,3.,24.0,1.,24.0,0.,24.0
1979-07-22 11:50:57.930 ,0,0,22.,24.0,4.,24.0,0.,24.0,0.,24.0
1979-07-22 11:51:21.930 ,1,1,16.,24.0,3.,24.0,0.,24.0,0.,24.0
1979-07-22 11:51:45.930 ,1,0,22.,24.0,1.,24.0,0.,24.0,0.,24.0
1979-07-22 11:52:09.930 ,2,1,10.,24.0,0.,24.0,1.,24.0,0.,24.0
1979-07-22 11:52:33.930 ,2,0,0.,24.0,0.,24.0,2.,24.0,0.,24.0
1979-07-22 11:52:57.930 ,3,1,0.,24.0,0.,24.0,0.,24.0,0.,24.0
1979-07-22 11:53:21.930 ,3,0,0.,24.0,0.,24.0,0.,24.0,0.,24.0
1979-07-22 11:53:45.930 ,4,1,0.,24.0,0.,24.0,0.,24.0,0.,24.0
1979-07-22 11:54:09.930 ,4,0,0.,24.0,0.,24.0,0.,24.0,0.,24.0
1979-07-22 11:54:33.930 ,5,1,0.,24.0,0.,24.0,0.,24.0,0.,24.0
1979-07-22 11:54:57.930 ,5,0,0.,24.0,0.,24.0,0.,24.0,0.,24.0
1979-07-22 11:55:21.930 ,6,1,0.,24.0,0.,24.0,2.,24.0,0.,24.0
1979-07-22 11:55:45.930 ,6,0,0.,24.0,0.,24.0,1.,24.0,0.,24.0
1979-07-22 11:56:09.930 ,7,1,7.,24.0,0.,24.0,0.,24.0,0.,24.0
1979-07-22 11:56:33.930 ,7,0,23.,24.0,0.,24.0,0.,24.0,0.,24.0
1979-07-22 11:56:57.930 ,7,1,25.,24.0,0.,24.0,0.,24.0,0.,24.0
1979-07-22 11:57:21.930 ,7,0,38.,24.0,0.,24.0,1.,24.0,0.,24.0
1979-07-22 11:57:45.930 ,6,1,25.,24.0,0.,24.0,0.,24.0,0.,24.0
1979-07-22 11:58:09.930 ,6,0,0.,24.0,1.,24.0,0.,24.0,0.,24.0
1979-07-22 11:58:33.930 ,5,1,0.,24.0,0.,24.0,1.,24.0,0.,24.0
1979-07-22 11:58:57.930 ,5,0,0.,24.0,0.,24.0,0.,24.0,0.,24.0
1979-07-22 11:59:21.930 ,4,1,0.,24.0,0.,24.0,1.,24.0,0.,24.0
1979-07-22 11:59:45.930 ,4,0,0.,24.0,0.,24.0,1.,24.0,0.,24.0
1979-07-22 12:00:09.930 ,3,1,0.,24.0,0.,24.0,0.,24.0,0.,24.0
